Flag for China Weather past 2 weeks in Dalian, Liaoning, China

Now
48 °F

Passing clouds.


Feels Like: 45 °F
Forecast: 43 / 55 °F
Wind: 8 mph from North

Location: Dalian Airport

Current Time: Apr 1, 2015 at 1:26:36 AM

Latest Report: Apr 1, 2015 at 1:00 AM


Visibility: 4 mi

Pressure: 30.09 "Hg

Humidity: 58%

Dew point: 34 °F

Location of DalianLocation

Historic Weather in Dalian — Graph

°F

Dalian temperature yesterday

Maximum temperature yesterday: 52 °F (at 3:00 PM)
Minimum temperature yesterday: 41 °F (at 12:00 AM)
Average temperature yesterday: 46 °F

Past Weeks' High & Low Weather Summary

 TemperatureHumidityPressure
High64 °F (Mar 19, 11:30 AM)100% (Mar 17, 12:00 AM)30.57 "Hg (Mar 17, 12:00 AM)
Low30 °F (Mar 23, 12:30 AM)9% (Mar 21, 4:00 PM)29.89 "Hg (Mar 18, 3:00 PM)
Average47 °F51%30.16 "Hg
* Reported Midnight between Mar 16 and Mar 17 — Apr 1 12:30 AM, Dalian, Weather by CustomWeather, © 2015

Note: Actual official high and low records may vary slightly from our data, if they occured in-between our weather recording intervals... More about our weather records

Advertising

Dalian weather history for previous 24 hours

 ConditionsComfort  
Time TempWeatherWind HumidityBarometerVisibility
12:30 AM
Wed, Apr 1
48 °FPassing clouds.10 mph62%30.07 "Hg4 mi
12:00 AM48 °FPassing clouds.8 mph62%30.09 "Hg4 mi
11:30 PM
Tue, Mar 31
50 °FPassing clouds.10 mph58%30.09 "Hg4 mi
11:00 PM48 °FPassing clouds.10 mph62%30.09 "Hg4 mi
10:30 PM48 °FLight rain. Fog.6 mph76%30.07 "Hg3 mi
10:00 PM48 °FLight rain. Fog.6 mph82%30.07 "Hg2 mi
9:30 PM48 °FFog.3 mph82%30.04 "Hg2 mi
9:00 PM48 °FFog.6 mph82%30.04 "Hg2 mi
8:30 PM48 °FFog.8 mph87%30.04 "Hg2 mi
8:00 PM48 °FDrizzle. Fog.6 mph87%30.04 "Hg2 mi
7:30 PM48 °FDrizzle. Fog.8 mph87%30.04 "Hg2 mi
7:00 PM50 °FFog.6 mph82%30.01 "Hg2 mi
6:30 PM48 °FDrizzle. Fog.No wind87%30.01 "Hg2 mi
6:00 PM48 °FDrizzle. Fog.1 mph87%29.98 "Hg2 mi
5:30 PM48 °FFog.3 mph87%29.98 "Hg2 mi
5:00 PM48 °FFog.6 mph82%29.95 "Hg2 mi
4:30 PM52 °FFog.3 mph77%29.95 "Hg2 mi
4:00 PM52 °FFog.6 mph72%29.95 "Hg2 mi
3:30 PM52 °FFog.8 mph72%29.95 "Hg2 mi
3:00 PM52 °FFog.8 mph77%29.92 "Hg2 mi
2:30 PM50 °FFog.8 mph82%29.95 "Hg2 mi
2:00 PM48 °FFog.8 mph87%29.95 "Hg2 mi
1:30 PM46 °FFog.6 mph93%29.95 "Hg2 mi
1:00 PM46 °FFog.8 mph93%29.98 "Hg2 mi
12:30 PM46 °FFog.8 mph87%29.98 "Hg2 mi
12:00 PM46 °FFog.10 mph93%29.98 "Hg2 mi
11:30 AM46 °FFog.6 mph93%29.98 "Hg2 mi
10:30 AM46 °FFog.8 mph100%30.01 "Hg1 mi
10:00 AM45 °FFog.10 mph100%30.01 "Hg1 mi
9:30 AM45 °FFog.8 mph100%29.98 "Hg1 mi
9:00 AM45 °FFog.10 mph100%29.98 "Hg1 mi
8:30 AM43 °FDrizzle. Fog.8 mph100%29.98 "Hg1 mi
8:00 AM43 °FDrizzle. Fog.13 mph100%29.95 "Hg1 mi
7:30 AM43 °FDrizzle. Fog.10 mph100%29.95 "Hg1 mi
7:00 AM43 °FDrizzle. Fog.8 mph100%29.95 "Hg1 mi
6:30 AM43 °FDrizzle. Fog.13 mph100%29.95 "Hg1 mi
6:00 AM41 °FDrizzle. Fog.10 mph100%29.95 "Hg1 mi
5:30 AM41 °FDrizzle. Fog.17 mph100%29.92 "Hg0 mi
5:00 AM41 °FDrizzle. Fog.15 mph100%29.92 "Hg0 mi
4:30 AM41 °FDrizzle. Fog.13 mph100%29.92 "Hg0 mi
4:00 AM41 °FDrizzle. Fog.10 mph100%29.92 "Hg0 mi
3:30 AM41 °FDrizzle. Fog.15 mph100%29.92 "Hg0 mi
3:00 AM41 °FDrizzle. Fog.13 mph100%29.92 "Hg0 mi
2:30 AM41 °FDrizzle. Fog.15 mph100%29.92 "Hg0 mi
2:00 AM41 °FDrizzle. Fog.8 mph100%29.92 "Hg0 mi
1:30 AM41 °FDrizzle. Fog.8 mph100%29.92 "Hg0 mi
1:00 AM41 °FDrizzle. Fog.10 mph100%29.92 "Hg0 mi
Weather by CustomWeather, © 2015

See weather overviewHow to use our weather pages